{"data":{"norad_id":29526,"intl_designator":"2006-051A","name":"BADR-4","alt_names":[],"object_type":"PAYLOAD","status":"ACTIVE","operator":null,"country":"AB","launch_date":"2006-11-08","launch_site_code":"TYMSC","launch_vehicle":null,"mission":null,"orbit_class":"UNKNOWN","rcs_meters":0.003,"size_class":null,"mass_kg":null,"dimensions":null,"purposes":["comms"],"wikipedia_slug":null,"has_3d_model":false,"image_url":null,"decayed_at":null,"tle_current":{"epoch":"2026-05-25T03:52:09.039072Z","epoch_age_seconds":58345,"freshness":"FRESH","line1":"1 29526U 06051A   26145.16121573  .00000144  00000+0  00000+0 0  9997","line2":"2 29526   1.9478  81.3534 0004856 326.8354 279.0113  1.00276546 51036","mean_motion":1.00276546,"eccentricity":0.0004856,"inclination_deg":1.9478,"raan_deg":81.3534,"arg_perigee_deg":326.8354,"mean_anomaly_deg":279.0113,"bstar":0,"rev_number":5103,"period_min":1436.0287200159,"perigee_km":35764.785787124,"apogee_km":35805.734878614,"semimajor_km":42163.397332869,"source":"CELESTRAK","updated_at":"2026-05-25T13:38:13.853612Z"}}}